Wind_Speed
45 43 39 36 33 32 31 28 24 23 23 23 22 21 20 18 16 13 13 15 9 3 12 16 10 8 3 2 3 6 4 3 3 4 4 3 5 7 7 16 16 11 8 4 5 2 11 7 10 5 5 8 10 11
47 42 40 36 34 34 31 27 25 25 24 23 22 21 21 20 18 15 15 13 15 7 5 18 18 16 17 11 6 1 3 5 2 4 5 4 3 4 9 9 13 13 8 6 9 6 4 5 5 7 7 9 9 15
47 44 40 37 35 33 29 25 24 23 24 23 22 21 21 20 20 19 15 14 8 5 10 17 14 24 21 20 13 3 2 3 3 5 5 4 8 7 6 14 15 12 11 7 9 11 9 8 5 9 10 10 12 14
47 46 41 39 36 32 28 25 22 23 23 23 21 21 20 20 20 20 17 15 13 4 5 10 18 19 27 27 25 24 17 10 4 2 3 4 4 6 5 8 11 9 12 10 9 11 11 9 10 9 13 13 14 15
47 46 43 39 35 32 28 25 23 23 23 22 21 19 19 19 19 18 17 18 18 9 3 6 23 18 17 24 27 25 21 11 4 2 3 2 6 5 6 8 10 10 7 8 7 11 9 11 12 12 14 14 15 16
50 46 44 40 36 33 28 25 23 22 21 20 19 18 19 20 19 13 3 20 22 16 3 4 10 18 20 21 19 20 16 7 3 2 3 4 8 5 4 8 14 16 16 10 9 13 11 8 16 15 13 14 14 15
46 46 45 41 37 32 28 25 23 21 20 18 18 19 20 21 22 14 3 2 9 20 3 4 5 13 27 22 14 7 15 4 5 2 4 4 4 5 5 12 14 16 20 11 7 6 6 10 14 15 15 18 21 20
51 47 43 40 35 31 27 25 24 22 18 17 17 18 18 18 19 18 26 14 6 9 6 4 5 7 9 9 10 9 6 7 5 3 3 7 3 3 7 19 22 22 15 16 12 7 6 9 15 15 20 20 16 15
51 46 42 40 35 28 26 26 24 19 18 16 15 13 10 9 7 18 15 16 15 7 3 5 7 6 7 10 7 6 6 5 3 5 4 5 5 6 10 16 18 21 17 9 14 12 12 12 16 17 18 17 17 16
47 46 41 39 34 30 28 26 22 21 19 17 14 5 3 8 10 11 4 2 2 4 4 4 7 11 1 3 5 6 5 5 4 6 5 3 5 20 18 19 16 16 19 17 14 13 13 13 16 19 19 16 16 18
50 46 43 39 34 31 29 26 25 23 22 13 6 5 6 17 12 5 5 5 6 5 6 7 11 11 10 6 2 4 3 4 5 6 6 6 8 17 20 21 21 18 16 14 14 17 17 16 17 16 17 20 23 26
46 42 41 36 34 31 30 28 29 29 14 14 9 4 6 5 4 7 5 4 6 8 7 10 12 11 7 3 4 4 4 4 6 6 5 4 15 15 17 25 26 21 16 11 14 17 17 19 23 20 22 23 27 27
43 40 37 35 34 32 30 30 32 26 16 8 1 6 4 6 8 5 8 5 4 5 6 10 9 5 8 7 4 3 5 6 2 4 3 8 9 10 12 19 22 21 18 14 14 21 23 23 26 26 25 29 31 30
41 39 36 35 34 32 31 32 34 25 7 3 5 7 5 5 6 5 8 9 6 7 9 7 2 2 6 8 4 4 3 1 3 5 7 6 11 12 15 16 19 23 23 17 18 18 22 25 24 27 30 34 34 32
36 34 34 33 32 32 32 32 35 23 5 3 5 5 7 5 6 6 3 7 11 9 9 3 3 3 2 4 4 5 3 5 6 6 3 9 16 17 17 9 15 16 16 14 13 16 22 25 26 27 31 33 33 34
34 29 31 31 33 32 32 31 29 13 3 3 6 6 6 7 4 7 7 4 3 3 1 2 2 2 6 4 6 8 6 7 2 1 2 3 9 14 14 12 10 13 14 14 22 25 26 29 30 31 31 31 34 35
35 9 32 34 33 32 34 17 9 5 4 5 4 7 7 6 6 5 5 2 3 1 1 1 3 3 6 4 4 5 3 4 3 2 0 6 7 11 9 8 1 14 17 25 29 30 29 32 35 36 29 29 32 31
23 23 36 38 37 34 20 8 4 6 7 6 5 6 7 6 5 6 3 6 4 3 2 2 1 3 5 4 1 6 4 1 2 2 3 5 8 5 6 5 7 15 24 28 30 31 34 33 29 27 34 34 33 32
31 30 42 42 38 10 4 6 5 5 7 6 8 8 7 7 6 7 5 5 4 5 3 3 4 4 4 1 3 9 11 8 3 3 2 10 7 5 4 11 11 16 21 27 29 27 29 28 28 31 33 34 31 30
25 38 45 44 34 5 5 4 11 4 4 5 8 8 7 6 6 4 5 6 6 5 5 4 6 7 9 9 7 9 7 10 6 3 2 1 2 4 12 13 12 18 21 23 27 30 30 29 27 30 30 31 31 30
30 41 46 40 12 7 5 5 6 5 4 4 8 9 7 8 9 8 7 9 8 9 10 8 10 10 10 13 13 12 8 9 7 4 3 4 4 6 13 17 19 18 19 21 20 24 26 26 30 30 32 28 29 28
25 40 18 20 5 3 3 7 5 6 5 4 6 5 5 8 8 9 8 9 10 10 10 12 11 10 10 9 6 13 14 15 14 7 5 14 6 6 8 15 16 14 18 19 23 23 27 30 32 31 31 31 31 30
34 15 9 5 4 5 4 5 5 5 5 3 6 9 7 5 6 8 5 6 8 9 15 13 18 22 13 6 8 7 3 9 4 5 8 11 13 12 16 17 17 18 17 22 24 27 28 33 34 33 33 31 31 30
24 4 5 5 3 5 4 4 4 3 4 6 5 9 9 7 8 10 12 12 12 10 10 15 12 8 4 5 4 3 9 13 9 10 14 13 10 13 18 17 20 21 23 27 28 30 31 31 34 32 31 31 30 28
5 4 4 5 4 5 5 6 5 6 6 5 8 6 3 3 5 9 12 10 11 10 12 11 9 8 8 6 5 10 15 14 11 9 16 19 19 17 17 20 22 23 28 29 30 31 31 31 30 30 30 30 29 27
6 4 8 9 6 6 6 7 7 8 6 3 4 4 4 5 5 7 6 11 10 9 9 8 9 8 8 9 8 8 14 15 14 10 16 21 23 21 14 12 11 20 26 29 33 35 32 31 31 31 29 29 28 28
5 4 5 5 7 7 4 7 6 7 7 7 4 4 4 5 7 3 3 5 4 7 7 16 18 12 9 10 13 15 15 18 17 15 19 20 21 22 23 21 22 26 33 34 33 34 37 35 33 32 31 28 26 26
3 5 8 8 5 7 6 4 5 5 5 6 3 5 4 4 1 2 1 8 9 12 4 17 18 18 15 18 18 20 19 19 22 22 21 19 18 22 24 24 27 31 32 34 33 33 34 35 35 33 31 29 26 24
3 3 6 5 3 3 4 7 5 3 1 2 2 3 3 2 3 3 3 8 9 8 5 10 11 19 20 20 18 18 21 28 25 19 16 11 11 17 31 35 35 34 33 33 31 32 34 36 34 33 30 28 26 24
4 5 3 7 4 6 3 1 1 2 2 2 3 3 5 4 5 7 6 8 8 3 8 13 15 16 15 17 16 17 20 22 24 23 13 13 16 29 33 36 34 34 35 36 36 35 35 36 33 31 29 27 25 23
7 5 3 4 3 1 3 2 0 2 3 3 3 7 9 5 5 11 14 14 14 16 16 14 15 16 18 18 20 17 12 22 23 21 22 29 31 32 35 36 37 37 36 38 39 37 36 32 30 29 27 25 24 23
4 6 4 5 3 3 3 3 2 2 2 3 3 3 2 3 5 3 11 20 20 16 18 19 18 20 21 20 20 14 19 26 25 29 34 37 32 33 37 37 37 37 37 36 35 36 34 32 29 27 27 26 25 23
3 2 2 3 3 2 3 2 3 3 4 4 4 4 4 2 5 1 3 17 17 17 18 22 24 27 26 24 23 21 25 29 32 34 38 40 39 38 37 37 38 38 38 37 35 34 33 32 29 27 26 27 24 22
Wind_Direction
200 201 205 205 206 208 206 207 209 210 213 215 215 218 220 221 222 219 246 249 228 259 280 290 296 276 266 307 304 353 333 268 142 160 198 237 233 224 245 260 188 192 188 185 212 216 246 259 132 201 94 116 137 128
197 199 201 201 205 207 204 207 210 212 213 214 212 216 218 221 221 218 247 245 245 230 279 298 288 281 279 270 275 342 307 288 242 181 212 237 279 222 214 265 240 204 205 180 185 203 220 226 99 146 156 139 136 116
197 197 198 200 201 200 200 204 204 206 209 211 213 216 217 220 220 214 232 251 253 265 277 257 258 259 251 249 217 242 206 282 19 22 317 242 238 223 212 223 249 230 203 202 213 213 223 176 138 147 155 154 126 127
195 195 196 197 198 198 197 200 204 202 205 208 213 218 222 220 217 213 227 242 250 275 270 265 256 243 235 233 229 216 247 283 318 319 285 270 250 275 265 249 244 236 208 219 229 249 171 180 162 180 149 135 136 139
192 194 195 195 195 195 196 198 198 200 204 208 215 218 218 216 215 214 231 240 243 211 294 308 312 282 268 211 224 226 214 239 252 249 238 269 293 291 290 285 270 249 240 198 227 221 187 189 169 182 144 144 146 150
190 191 192 195 195 195 195 197 196 201 205 210 213 213 213 209 202 202 248 242 237 227 271 269 260 257 244 236 223 229 206 222 203 217 243 241 268 287 275 255 258 267 281 194 232 255 212 195 163 171 149 149 152 150
190 188 189 192 193 192 193 195 198 202 205 211 215 213 212 204 194 195 192 104 204 206 244 260 250 238 234 238 214 198 197 192 209 207 229 260 277 240 251 255 265 246 254 241 224 97 119 166 160 154 149 148 148 144
189 188 182 186 188 188 191 194 198 201 206 206 206 208 208 205 210 229 237 257 320 198 228 253 259 278 253 205 222 171 190 197 193 221 234 224 216 240 246 237 240 262 247 242 147 162 176 141 132 138 146 147 148 149
178 175 179 181 186 186 191 192 193 194 191 191 192 189 179 197 198 226 235 249 252 260 232 225 235 267 214 195 200 177 187 205 173 226 212 184 189 225 243 231 228 246 255 256 163 165 168 159 156 154 152 159 156 153
178 173 172 176 181 190 188 188 185 182 176 165 152 152 197 204 169 169 177 210 220 214 232 236 244 253 314 336 215 187 192 212 175 221 180 230 225 239 242 244 253 237 253 253 174 169 164 177 172 164 166 165 159 151
170 169 171 178 184 184 184 183 177 170 160 166 169 204 216 168 159 182 209 206 184 214 202 220 236 260 275 226 238 267 192 192 189 197 202 208 243 231 221 236 247 260 242 248 190 178 181 177 164 160 162 158 153 150
164 167 174 179 181 182 183 178 175 170 170 183 169 137 165 186 183 210 198 193 195 202 184 202 216 219 241 193 216 222 191 184 231 160 211 241 247 238 214 220 229 235 245 266 197 172 170 169 169 162 155 150 148 146
164 172 177 179 181 181 180 179 178 175 163 162 224 190 212 181 207 210 168 180 199 201 202 209 213 237 212 223 252 201 216 202 125 186 216 246 271 277 243 208 219 224 224 238 176 168 161 157 159 159 148 146 143 142
168 173 177 180 180 179 181 180 176 174 152 196 204 190 218 184 210 201 185 193 201 212 231 234 132 261 222 186 214 263 238 231 225 203 230 283 283 271 261 205 205 210 210 217 178 152 147 150 151 145 146 145 143 141
169 176 177 179 179 182 181 180 177 173 154 234 211 235 216 187 235 211 212 219 209 211 244 171 177 141 297 233 231 226 226 237 227 236 32 339 334 320 316 283 216 200 197 167 147 140 140 142 136 133 137 141 139 133
171 172 178 178 180 180 178 173 176 178 207 248 240 214 232 194 195 214 140 188 324 288 326 82 329 232 233 214 196 210 226 211 190 192 264 341 342 313 302 306 286 182 155 136 130 127 125 131 130 128 127 127 128 132
173 162 180 179 178 176 171 157 166 166 211 220 244 240 241 220 208 206 229 200 113 105 102 85 239 253 307 197 224 209 239 296 109 144 320 48 340 325 330 323 311 124 123 125 124 123 123 124 122 120 118 123 124 128
179 176 173 174 169 163 162 176 185 189 213 225 244 238 215 225 209 229 225 146 181 132 161 180 176 257 282 273 270 3 356 36 13 36 50 41 21 20 327 17 50 118 123 120 123 125 125 129 126 126 127 128 125 129
177 173 172 170 164 153 146 181 190 213 204 205 229 221 214 212 194 212 208 185 169 160 152 199 233 233 252 24 358 335 326 331 344 349 339 33 6 36 66 95 97 99 112 122 127 131 132 132 132 134 133 136 138 141
176 171 170 163 163 158 150 180 180 255 214 190 218 207 221 216 212 209 221 217 211 186 206 229 236 247 258 256 266 286 290 295 291 333 30 241 75 117 128 122 119 123 118 125 126 129 125 126 131 137 141 143 140 140
164 163 161 166 195 225 166 165 178 196 215 195 207 216 217 220 223 222 228 235 234 236 240 242 258 263 255 251 250 266 266 275 275 247 214 176 153 139 122 127 140 142 141 142 139 134 134 136 142 143 141 138 136 135
143 150 156 168 219 215 236 201 182 169 184 200 198 204 228 228 236 238 243 246 249 251 246 248 251 265 262 250 203 219 231 254 267 263 196 147 149 170 147 152 160 152 148 145 140 139 139 141 139 138 133 131 131 131
140 141 139 171 167 176 190 191 190 185 195 203 208 212 217 223 222 232 232 233 246 259 247 243 246 252 257 196 193 208 204 254 230 196 159 165 156 168 159 164 171 153 141 143 145 142 138 137 134 133 132 131 131 132
142 115 152 175 159 159 170 170 184 200 199 215 231 227 245 243 229 228 244 242 235 237 240 230 231 234 190 195 208 185 186 213 197 166 172 164 151 168 172 161 151 148 148 145 142 136 135 136 134 134 134 134 135 135
125 171 181 160 188 139 150 176 193 214 212 208 237 250 273 278 226 224 230 241 232 223 223 221 221 213 216 223 204 212 201 204 165 169 167 166 154 152 152 147 148 151 150 139 139 138 138 137 135 136 138 139 139 139
165 174 176 173 159 172 180 186 197 210 223 236 254 257 212 216 223 238 224 235 235 221 212 200 194 196 209 215 208 191 189 184 171 164 165 170 165 159 161 150 142 146 150 148 145 142 139 139 138 138 139 140 140 138
165 167 173 179 184 184 181 201 199 198 203 210 221 244 208 232 227 235 33 14 345 345 223 191 195 200 209 196 175 176 172 171 174 164 167 168 165 168 165 160 155 152 150 150 150 150 143 142 142 141 138 141 144 146
174 160 161 170 193 196 194 187 185 218 217 223 206 216 246 225 273 53 10 304 307 313 297 189 196 206 188 158 149 150 153 157 148 144 139 138 151 153 151 149 145 146 147 147 149 148 145 143 141 141 142 142 142 144
166 167 150 178 167 185 203 201 224 216 333 309 278 250 263 0 149 158 212 282 283 288 246 122 93 116 120 133 146 158 151 151 148 148 149 144 139 136 139 139 141 141 142 141 144 144 143 141 140 140 139 137 140 145
160 159 154 170 200 208 208 284 63 43 240 264 295 275 254 238 196 187 208 224 236 208 135 122 131 138 145 149 146 152 170 172 168 165 163 158 147 142 142 140 141 142 142 139 135 134 134 133 132 131 132 136 141 146
151 165 155 178 222 124 89 84 353 248 258 262 253 259 268 299 277 237 206 195 185 159 145 149 153 162 166 171 171 162 165 177 177 178 164 144 146 148 147 145 145 146 146 143 140 139 138 138 139 140 143 146 151 157
143 180 172 188 162 141 156 207 225 242 233 240 252 211 257 260 273 205 180 173 167 170 175 173 171 176 183 182 180 183 167 163 168 165 164 151 154 151 147 147 147 147 145 142 142 144 145 144 146 149 151 154 158 158
125 138 142 134 147 204 187 219 220 267 230 248 246 214 212 252 267 296 194 192 187 180 173 170 168 171 182 176 173 169 162 163 170 168 161 156 155 151 149 149 148 147 146 145 147 149 149 150 150 154 157 158 157 160
Height
746 755 764 772 779 786 792 798 803 808 812 817 821 826 830 833 837 841 840 840 842 839 830 828 829 825 827 827 825 823 812 806 809 815 809 801 794 783 785 771 774 785 791 801 796 809 812 758 767 784 773 768 770 775
740 748 758 766 774 782 788 793 798 803 808 813 818 822 827 831 835 839 839 838 838 841 836 829 828 826 824 825 827 830 828 826 803 808 805 795 792 779 776 787 753 775 767 780 781 783 761 753 761 763 769 773 775 782
734 742 752 761 770 777 783 789 794 800 805 810 815 819 824 828 832 836 837 837 837 837 830 825 819 819 820 822 824 827 826 823 819 826 812 791 788 773 778 773 764 749 745 763 764 756 754 755 760 763 767 775 779 787
727 737 746 756 765 773 779 786 791 796 802 807 812 816 821 825 829 833 835 835 836 837 827 813 811 808 811 813 815 818 821 821 824 826 820 795 786 768 770 760 757 747 747 753 756 751 749 754 761 764 767 775 784 791
722 733 742 752 761 769 776 782 788 794 799 804 809 813 818 822 827 831 833 832 833 838 823 816 810 804 801 803 806 810 816 820 821 822 812 799 784 776 764 760 757 741 745 754 762 749 752 757 759 765 769 777 785 791
719 729 739 748 758 766 772 780 786 791 796 801 806 810 815 819 825 830 831 828 828 831 831 818 800 796 796 797 799 805 808 815 819 818 811 797 787 788 780 764 754 745 741 739 746 741 742 745 754 764 771 779 786 793
716 725 735 745 755 763 770 777 783 789 794 799 803 808 812 816 821 823 821 821 821 828 828 815 795 783 785 789 790 797 804 811 813 814 808 801 789 785 780 771 755 745 741 737 738 744 748 748 755 762 773 780 788 796
711 722 731 743 752 760 768 774 781 787 792 797 801 806 811 816 820 821 819 822 823 823 822 812 792 782 777 779 788 790 798 805 804 804 796 788 786 788 770 754 754 741 735 735 739 743 748 749 756 766 774 782 789 797
707 717 728 740 749 758 765 772 779 785 790 796 802 807 812 814 816 814 818 820 821 824 811 799 789 781 764 770 774 783 787 792 790 789 784 783 779 782 758 753 743 739 740 735 736 742 748 753 758 766 774 783 790 797
705 717 728 738 747 756 763 770 777 784 790 797 803 806 806 805 809 813 817 818 817 811 805 792 780 775 777 779 771 779 780 776 780 782 773 776 768 752 751 748 740 735 734 734 738 744 750 755 759 764 771 780 789 796
704 714 726 736 745 753 761 769 776 783 790 794 798 798 797 799 806 810 805 805 798 792 783 779 779 777 772 775 785 776 766 766 765 755 759 755 740 730 737 738 733 731 726 727 732 734 740 747 755 762 772 782 790 798
704 716 725 734 743 752 760 767 773 780 784 788 791 793 796 793 796 789 784 784 779 773 762 768 769 770 770 769 777 774 765 762 752 744 749 734 711 712 715 720 721 722 724 724 725 731 739 745 755 762 769 780 791 801
705 716 725 734 742 751 758 765 772 779 784 789 792 790 790 780 775 773 770 766 764 753 752 754 759 763 763 763 769 765 758 755 750 752 742 718 704 703 701 704 710 713 717 721 723 727 733 744 755 762 771 782 791 802
707 715 725 734 742 749 756 764 771 778 784 785 784 773 771 763 755 745 743 747 747 748 747 750 758 767 754 755 751 753 743 751 743 741 727 705 701 696 692 691 697 701 706 712 717 724 733 744 754 764 773 782 791 801
709 718 726 735 741 749 756 764 771 777 780 779 771 762 749 747 741 738 737 739 740 742 743 750 756 769 766 757 747 740 749 739 721 707 713 727 721 712 702 690 688 693 701 707 715 724 736 748 756 766 777 786 795 803
711 721 726 733 741 748 756 765 773 777 779 775 764 755 744 741 741 738 743 752 747 744 746 750 755 759 755 749 746 738 720 714 709 727 728 725 723 721 711 703 694 691 699 708 718 729 741 751 758 770 781 790 797 805
711 714 723 732 740 749 757 764 769 771 772 765 756 748 745 742 742 743 744 745 748 751 758 758 762 752 754 733 729 717 713 707 716 726 726 720 724 723 718 712 701 697 704 713 724 735 748 756 763 773 786 798 805 814
708 714 721 730 739 750 757 761 763 762 761 756 752 746 742 741 742 744 741 748 751 755 759 762 764 761 754 727 715 724 725 726 726 725 723 721 721 726 725 722 718 716 713 720 731 742 751 760 770 780 789 799 810 820
705 712 720 729 737 744 750 756 756 752 748 747 746 743 740 743 742 745 744 746 749 755 760 760 758 752 745 746 748 748 745 734 729 727 720 719 727 728 730 731 732 729 730 732 740 748 757 766 775 783 792 801 811 820
707 713 720 729 737 740 743 746 750 745 739 739 740 741 740 740 741 742 745 747 747 751 754 752 744 742 741 740 742 741 742 739 732 724 723 728 730 732 734 736 739 740 741 747 750 755 763 774 783 791 798 805 811 819
706 714 724 731 736 734 730 735 736 737 737 736 736 737 738 738 739 741 742 743 742 740 739 737 736 735 733 732 734 733 735 735 730 729 726 728 733 736 737 742 745 747 749 753 754 761 767 775 785 793 801 808 815 821
702 716 724 733 734 731 729 725 725 727 732 732 733 735 736 739 739 736 735 733 732 731 729 727 727 728 726 726 728 729 729 729 727 725 725 728 733 737 740 742 747 747 749 753 759 765 772 780 787 796 803 810 816 823
705 715 721 725 725 727 725 722 723 724 728 729 728 732 732 731 731 731 731 728 724 724 721 720 720 722 722 722 724 725 725 726 724 724 725 728 733 737 740 744 746 745 749 758 765 771 776 783 790 798 805 812 819 827
707 713 717 718 715 720 721 722 722 722 723 725 722 724 722 720 719 721 716 711 709 711 712 710 711 713 716 719 718 717 718 724 724 725 728 730 734 740 741 743 747 750 756 761 767 774 782 788 793 800 808 814 821 827
708 714 713 712 712 716 719 721 722 719 720 723 724 722 720 715 712 709 702 693 696 696 696 700 703 705 707 708 714 715 718 719 721 725 728 732 736 741 743 746 751 755 760 764 771 777 785 791 797 804 810 815 821 828
700 708 707 703 707 710 710 713 715 717 717 722 721 714 709 715 708 697 684 682 682 683 688 689 694 700 702 702 704 708 712 715 718 722 725 728 732 736 741 742 749 758 763 769 773 778 784 792 798 805 813 819 824 829
697 699 694 696 698 699 701 704 705 708 711 714 710 712 705 700 690 677 681 686 684 683 681 684 689 692 695 699 703 707 711 715 718 721 725 729 733 737 740 743 747 755 761 768 776 780 781 790 799 806 811 820 825 830
687 688 693 694 695 695 700 702 705 704 702 698 698 701 694 685 676 691 691 690 688 686 684 685 688 691 693 697 702 708 713 716 719 725 728 732 736 740 744 750 754 760 765 771 777 782 787 791 796 804 812 818 825 830
686 686 691 696 696 696 696 698 697 697 702 698 695 687 684 686 691 691 692 689 687 686 685 686 689 689 693 698 703 708 711 713 714 722 728 732 738 745 746 750 756 762 767 774 781 785 789 793 799 807 813 818 825 832
688 686 690 694 696 695 696 694 694 699 698 696 696 693 688 684 685 688 689 688 686 685 685 687 691 694 697 701 705 710 714 716 717 720 724 727 733 740 745 749 756 763 769 774 780 788 794 798 805 811 816 822 827 833
683 687 690 691 692 694 698 701 702 702 700 696 693 691 685 683 680 679 681 682 682 682 685 688 691 696 700 703 705 707 711 715 718 723 727 728 735 740 743 749 755 763 770 775 780 786 792 799 805 811 817 822 827 833
685 686 686 688 692 700 701 700 696 696 691 691 686 685 683 681 673 667 670 674 679 682 682 684 688 695 700 702 704 706 705 709 716 721 725 727 736 740 743 750 756 763 769 774 780 787 794 799 806 812 818 823 828 831
685 686 687 690 693 695 696 697 693 690 688 684 679 677 677 676 669 662 663 665 670 674 679 683 688 690 693 697 701 704 706 710 716 721 723 728 734 739 744 751 756 763 769 775 783 790 795 801 807 813 818 822 825 829